[[{"header":{"parameterUnit":"m.s-1","parameterCategory":1,"la1":30.2991,"la2":30.254,"lo1":-89.0895,"lo2":-89.0444,"dy":0.0017,"dx":0.0017,"nx":28,"ny":28,"refTime":"2024-06-13T03:00:00:Z","depth":0,"parameterNumber":2,"parameterNumberName":"U-component_of_WINDS"},"data":[0,0,0,0,0,0,0,0,0,0,0,0,0,0,0,0,0,0,0,0,0,0,0,0,0,0,0,0,0,0,0,0,0,0,0,0,0,0,0,0,0,0,0,0,0,0,0,0,0,0,0,0,0,0,0,0,0,0,0.0284,0.0284,0,0.0342,0.0342,0.0343,0.0378,0.0378,0.0378,0.0379,0.0438,0.0439,0.0441,0,0,0,0,0,0,0,0,0,0,0,0,0,0.0203,0.0204,0.0284,0.0284,0.0285,0.0342,0.0342,0.0343,0.0378,0.0378,0.0378,0.0379,0.0437,0.0439,0.0441,0,0,0,0,0,0,0,0,0,0,0,0,0,0.0247,0.0204,0.0283,0.0309,0.0312,0.0341,0.0342,0.0343,0.0378,0.0378,0.0378,0.0379,0.0437,0.0439,0.0441,0.0449,0,0,0.0447,0.0448,0,0,0,0,0,0,0,0,0.0244,0.025,0.0305,0.0308,0.0311,0.0353,0.0336,0.0379,0.0378,0.0353,0.0379,0.0379,0.0409,0.0414,0.0424,0.0452,0.0454,0.0448,0.0449,0.045,0.045,0,0,0,0,0,0,0,0.0241,0.0248,0.0307,0.0305,0.0309,0.0318,0.0324,0.0344,0.0379,0.0355,0.0358,0.0364,0.0411,0.0422,0.0426,0.0455,0.0448,0.0449,0.0451,0.0452,0.0493,0.0492,0,0,0,0,0,0,0.0234,0.0245,0.0305,0.0308,0.0278,0.0319,0.0326,0.0339,0.0379,0.0385,0.0364,0.0366,0.0418,0.0423,0.0428,0.044,0.045,0.0452,0.0453,0.0493,0.0493,0.0492,0,0,0,0,0,0,0.0232,0.0239,0.0302,0.0277,0.0286,0.032,0.0334,0.034,0.0351,0.0386,0.0392,0.0369,0.0419,0.0425,0.0444,0.0442,0.0453,0.0455,0.0493,0.0493,0.0492,0.0464,0,0,0,0,0,0,0.023,0.0238,0.0242,0.0277,0.0287,0.0317,0.0334,0.0341,0.0355,0.0357,0.0392,0.0398,0.0419,0.044,0.0446,0.0445,0.0456,0.0493,0.0493,0.0493,0.0465,0.0462,0.046,0,0,0,0,0,0.0227,0.0231,0.0242,0.0249,0.0292,0.0317,0.0322,0.0347,0.0354,0.0358,0.038,0.0396,0.0442,0.0442,0.0448,0.0449,0.0493,0.0493,0.0493,0.0466,0.0463,0.046,0,0,0,0,0,0,0.0194,0.0236,0.0248,0.0264,0.0287,0.0323,0.0328,0.0343,0.0364,0.0366,0.0396,0.0403,0.0419,0.0436,0.0435,0.0459,0.0469,0.047,0.0447,0.0444,0.0442,0.0437,0.0458,0,0,0,0,0,0.0189,0.0206,0.0241,0.0252,0.0263,0.0293,0.0305,0.0322,0.0347,0.0356,0.038,0.0403,0.0422,0.0434,0.0454,0.0468,0.0476,0.0471,0.0469,0.0467,0.0467,0.0475,0.0474,0.0491,0.0491,0.0491,0,0,0.0178,0.0203,0.0212,0.0246,0.0266,0.0282,0.0301,0.0317,0.033,0.0359,0.0378,0.0396,0.0423,0.0439,0.0448,0.0454,0.0464,0.0466,0.0465,0.0466,0.0475,0.0473,0.0471,0.0491,0.0491,0.0491,0,0,0.0167,0.0188,0.0199,0.0218,0.0247,0.0267,0.027,0.0304,0.0317,0.0336,0.0358,0.0374,0.0407,0.0425,0.0439,0.0435,0.0451,0.0441,0.0429,0.0436,0.0435,0.0434,0.0432,0.0431,0.0441,0.0441,0.0441,0,0.0149,0.0175,0.0202,0.0217,0.0232,0.0259,0.027,0.0288,0.0322,0.0331,0.0338,0.038,0.04,0.0421,0.042,0.043,0.0434,0.0437,0.0433,0.0432,0.0432,0.043,0.043,0.044,0.044,0.044,0.044,0,0.0152,0.0169,0.0175,0.0207,0.0222,0.0235,0.0265,0.0277,0.0293,0.0313,0.0332,0.0358,0.0383,0.039,0.0406,0.0413,0.0416,0.0427,0.0439,0.0428,0.0427,0.0427,0.0438,0.0438,0.0439,0.0439,0,0,0.0121,0.0168,0.017,0.0185,0.0219,0.0233,0.0248,0.0273,0.0283,0.0305,0.0318,0.0346,0.0357,0.0372,0.0391,0.0398,0.0392,0.0409,0.041,0.0404,0.0401,0.0392,0.039,0.0403,0.0403,0.0403,0.0399,0,0.0114,0.0141,0.0166,0.0184,0.0201,0.0227,0.024,0.0262,0.0281,0.0298,0.0319,0.0338,0.0351,0.0361,0.0369,0.0391,0.0392,0.0392,0.0415,0.0416,0.0406,0.039,0.038,0.0374,0.0399,0.0399,0.0399,0,0.0109,0.0131,0.015,0.0183,0.0191,0.0202,0.0227,0.0243,0.0269,0.0282,0.03,0.032,0.0336,0.0346,0.037,0.0369,0.038,0.0393,0.0393,0.0395,0.0406,0.0391,0.0373,0.0372,0.0398,0.0398,0.0398,0,0.0083,0.0117,0.0134,0.0146,0.0185,0.0192,0.0209,0.0235,0.0249,0.0271,0.028,0.0303,0.0316,0.0334,0.0359,0.0365,0.038,0.0392,0.0391,0.039,0.0392,0.0391,0.0375,0.0401,0.0401,0.0401,0.0401,0,0.0072,0.0083,0.0123,0.0132,0.0145,0.0175,0.0187,0.0206,0.0229,0.0243,0.0268,0.0281,0.0314,0.033,0.0351,0.0366,0.0372,0.0383,0.0388,0.0381,0.0379,0.0387,0.0388,0.04,0.0401,0.0401,0.0401,0,0.0045,0.0072,0.0091,0.0127,0.0136,0.0144,0.0175,0.0186,0.0206,0.0224,0.023,0.0262,0.0283,0.031,0.034,0.0353,0.0367,0.0375,0.0357,0.036,0.0357,0.0357,0.0344,0.0344,0.0371,0.0371,0.037,0,0.0035,0.0044,0.0081,0.0092,0.0108,0.0126,0.014,0.0169,0.0183,0.0214,0.0221,0.0244,0.0263,0.0295,0.0321,0.0344,0.0353,0.0347,0.0356,0.0348,0.0352,0.0351,0.0351,0.0344,0.0344,0.0343,0.0343,0,0.0015,0.0028,0.0048,0.0072,0.0088,0.0108,0.013,0.0138,0.0171,0.0185,0.0207,0.0222,0.0253,0.0275,0.0301,0.0319,0.0336,0.034,0.0341,0.0333,0.0322,0.0327,0.035,0.034,0.034,0.0341,0.0341,0.0341,-0.0004,0.0005,0.0033,0.0054,0.0073,0.0093,0.0104,0.0127,0.0145,0.0172,0.0189,0.021,0.0236,0.0273,0.029,0.0307,0.0314,0.0315,0.0315,0.0315,0.0312,0.032,0.0312,0.0312,0.0312,0.0312,0.0312,0,-0.0023,-0.0004,0.0015,0.0044,0.0061,0.0077,0.0101,0.0114,0.0132,0.0155,0.0174,0.0199,0.0221,0.0249,0.0273,0.0281,0.029,0.0287,0.0286,0.0289,0.0305,0.0301,0.0279,0.0279,0.0279,0.0279,0.0279,0.0279,-0.0032,-0.0015,0.0001,0.0028,0.0047,0.0068,0.008,0.0099,0.0117,0.0144,0.0162,0.0181,0.0206,0.0232,0.0253,0.0261,0.0268,0.0262,0.0272,0.0285,0.0288,0.0291,0.0288,0.0263,0.0263,0.0255,0.0255,0.0255]},{"header":{"parameterUnit":"m.s-1","parameterCategory":1,"la1":30.2991,"la2":30.254,"lo1":-89.0895,"lo2":-89.0444,"dy":0.0017,"dx":0.0017,"nx":28,"ny":28,"refTime":"2024-06-13T03:00:00:Z","depth":0,"parameterNumber":3,"parameterNumberName":"V-component_of_WINDS"},"data":[0,0,0,0,0,0,0,0,0,0,0,0,0,0,0,0,0,0,0,0,0,0,0,0,0,0,0,0,0,0,0,0,0,0,0,0,0,0,0,0,0,0,0,0,0,0,0,0,0,0,0,0,0,0,0,0,0,0,2.927,2.9271,0,2.9286,2.9287,2.9287,2.9249,2.9247,2.9246,2.9245,2.9259,2.926,2.9262,0,0,0,0,0,0,0,0,0,0,0,0,0,2.9205,2.9206,2.927,2.9271,2.9271,2.9286,2.9287,2.9287,2.9249,2.9247,2.9246,2.9245,2.9259,2.926,2.9262,0,0,0,0,0,0,0,0,0,0,0,0,0,2.9228,2.9206,2.927,2.9254,2.9253,2.9286,2.9287,2.9287,2.9249,2.9247,2.9246,2.9244,2.9258,2.926,2.9262,2.9312,0,0,2.9269,2.927,0,0,0,0,0,0,0,0,2.9227,2.9231,2.9256,2.9255,2.9254,2.9264,2.9268,2.9295,2.925,2.925,2.9245,2.9243,2.9262,2.9264,2.9271,2.9313,2.9313,2.9269,2.9271,2.9272,2.9272,0,0,0,0,0,0,0,2.9225,2.923,2.9277,2.9256,2.9255,2.9245,2.9246,2.9273,2.9266,2.925,2.9247,2.925,2.9261,2.9268,2.9271,2.9313,2.9269,2.9271,2.9273,2.9273,2.9397,2.9398,0,0,0,0,0,0,2.9226,2.9229,2.9276,2.9277,2.9236,2.9247,2.9249,2.9262,2.9266,2.9264,2.9252,2.9248,2.9266,2.9268,2.9271,2.9329,2.9272,2.9274,2.9275,2.9395,2.9397,2.9399,0,0,0,0,0,0,2.9225,2.9231,2.9275,2.9252,2.9257,2.9251,2.9266,2.9264,2.9271,2.9267,2.9265,2.9261,2.9264,2.9268,2.9302,2.9329,2.9275,2.9277,2.9392,2.9395,2.9398,2.9445,0,0,0,0,0,0,2.9223,2.923,2.925,2.9253,2.9258,2.9307,2.9267,2.9265,2.9275,2.9271,2.9275,2.9274,2.9263,2.9299,2.9304,2.9331,2.9278,2.939,2.9394,2.9397,2.9441,2.9449,2.9456,0,0,0,0,0,2.9221,2.9262,2.9251,2.9257,2.9283,2.9309,2.9312,2.93,2.9278,2.9297,2.9294,2.9274,2.9325,2.9303,2.9309,2.9336,2.9388,2.9393,2.9397,2.9438,2.9448,2.9456,0,0,0,0,0,0,2.9261,2.9262,2.925,2.9293,2.9302,2.9302,2.9326,2.9311,2.9324,2.932,2.9303,2.9304,2.9341,2.9342,2.9317,2.9384,2.9353,2.9359,2.9382,2.9391,2.9399,2.9397,2.928,0,0,0,0,0,2.9275,2.9297,2.9297,2.9335,2.934,2.9332,2.9343,2.9333,2.934,2.9343,2.9343,2.935,2.9368,2.938,2.9396,2.9441,2.9441,2.9463,2.9471,2.9477,2.9481,2.9505,2.9514,2.9413,2.9413,2.9413,0,0,2.9304,2.9308,2.9322,2.9343,2.9348,2.9371,2.9335,2.936,2.9376,2.9347,2.9379,2.9379,2.9386,2.9426,2.9444,2.9428,2.951,2.9482,2.9487,2.9489,2.951,2.952,2.9528,2.9416,2.9416,2.9415,0,0,2.9368,2.9374,2.9406,2.9412,2.942,2.9415,2.9423,2.9427,2.9426,2.9458,2.9436,2.9455,2.9486,2.9492,2.9499,2.9566,2.9547,2.9571,2.961,2.9633,2.9641,2.9648,2.9671,2.9679,2.9576,2.9576,2.9576,0,2.9403,2.9437,2.9424,2.9451,2.946,2.9436,2.9468,2.9474,2.9487,2.9494,2.9476,2.9515,2.9518,2.9558,2.9575,2.9582,2.9589,2.957,2.9641,2.9648,2.9654,2.9676,2.9685,2.9579,2.9579,2.9579,2.9578,0,2.9478,2.9502,2.9527,2.9541,2.9553,2.9583,2.9574,2.9588,2.9577,2.9573,2.9606,2.9609,2.9625,2.9634,2.9624,2.9674,2.9663,2.9644,2.9612,2.9667,2.9687,2.9695,2.9583,2.9582,2.9581,2.9581,0,0,2.9567,2.9575,2.9584,2.959,2.9598,2.9615,2.9643,2.966,2.9671,2.9681,2.9704,2.9731,2.9713,2.9721,2.9711,2.9731,2.9783,2.9709,2.9709,2.9722,2.9837,2.9851,2.986,2.9771,2.9773,2.9774,2.9836,0,2.963,2.9678,2.9668,2.9716,2.9737,2.9714,2.9738,2.9745,2.9743,2.976,2.9757,2.9776,2.9751,2.9756,2.9775,2.9772,2.9805,2.9768,2.9791,2.9792,2.9788,2.9871,2.9886,2.9944,2.9844,2.9845,2.9846,0,2.9709,2.9723,2.9772,2.9777,2.9785,2.9807,2.9821,2.9838,2.9846,2.9842,2.9852,2.9838,2.9865,2.9834,2.987,2.9845,2.9853,2.9854,2.9855,2.9856,2.9821,2.9873,2.9962,2.997,2.9858,2.9857,2.9856,0,2.9767,2.9798,2.9832,2.9838,2.9844,2.986,2.9863,2.9869,2.9879,2.9892,2.9898,2.9913,2.9921,2.9933,2.9923,2.9902,2.9961,2.9929,2.9958,2.9958,2.997,2.9969,3.0061,2.9978,2.9978,2.9978,2.9977,0,2.9837,2.9868,2.9858,2.9879,2.9913,2.9901,2.9934,2.9935,2.994,2.996,2.9941,2.996,2.9946,2.9964,2.9956,2.9987,2.9991,2.9988,2.9985,2.9989,2.9989,2.9993,2.9989,2.998,2.9979,2.9979,2.9979,0,2.9907,2.9902,2.9937,2.9941,2.9942,2.9967,2.9969,2.9988,2.9985,3.001,3.0015,3.001,3.0029,3.0021,3.0041,3.0036,3.0075,3.0068,3.0073,3.007,3.0099,3.0096,3.0196,3.0208,3.0118,3.0119,3.012,0,2.9952,2.9975,2.9982,2.9994,2.9999,3.0019,3.003,3.0019,3.0031,3.0041,3.0058,3.0076,3.009,3.0122,3.0119,3.0135,3.0127,3.0161,3.0129,3.0131,3.0126,3.0124,3.0126,3.0167,3.0168,3.0168,3.0169,0,3.0031,3.0027,3.0044,3.0061,3.0074,3.0086,3.0096,3.0107,3.0097,3.0111,3.0131,3.0142,3.0163,3.0181,3.0195,3.0197,3.0181,3.018,3.0187,3.019,3.0191,3.019,3.0089,3.0177,3.0176,3.0175,3.0175,3.0175,3.0089,3.0108,3.0116,3.0135,3.0142,3.0152,3.017,3.0169,3.0186,3.0203,3.0196,3.0219,3.0225,3.0242,3.0247,3.0264,3.025,3.0261,3.0264,3.0266,3.0269,3.019,3.0266,3.0266,3.0266,3.0266,3.0266,0,3.0166,3.017,3.0188,3.0203,3.0218,3.0204,3.0214,3.0228,3.0248,3.0256,3.027,3.0293,3.0311,3.031,3.0325,3.0339,3.0333,3.0344,3.0342,3.0343,3.0281,3.0273,3.0349,3.0349,3.0349,3.0349,3.0349,3.0349,3.0208,3.024,3.0237,3.0273,3.0276,3.0299,3.0306,3.0315,3.0321,3.0348,3.0363,3.0362,3.0367,3.0383,3.0398,3.0397,3.0403,3.0417,3.0413,3.0355,3.0347,3.0339,3.0331,3.0418,3.0419,3.0473,3.0473,3.0474]}]]